Probability
10 10 6 10 10 6 6 3 0 0 0 0 0 0 0 0 0 0 0 0 0 3 3 0 3 3 3 6 6 3 6 6 3 3 3 0 0 0 3 3 3 3 0
10 6 3 3 3 0 0 0 0 0 3 0 0 0 0 0 0 0 0 0 0 0 3 0 3 3 3 0 3 3 6 6 6 6 10 3 0 0 0 3 3 3 0
6 6 3 3 3 3 0 0 0 0 0 0 0 0 0 0 0 0 0 0 0 0 0 3 3 3 0 0 0 3 0 3 3 6 6 6 0 0 0 0 0 3 0
0 3 3 3 3 0 0 0 0 0 0 0 0 0 0 0 0 0 0 0 0 0 0 0 0 0 0 0 0 0 0 0 3 6 6 6 3 0 0 0 0 0 0
0 0 3 3 0 0 0 0 0 0 0 0 0 0 0 0 0 0 0 0 0 0 0 0 0 0 0 0 0 0 0 0 0 3 6 6 6 6 3 0 0 0 0
0 0 0 0 0 0 0 0 0 0 0 0 0 0 0 0 0 0 0 0 0 0 0 0 0 0 0 0 0 0 0 0 0 3 3 3 3 6 6 6 3 0 0
0 0 0 0 0 0 0 0 0 0 0 0 0 0 0 0 0 0 0 0 0 0 0 0 0 0 0 0 0 0 0 0 0 0 3 3 3 3 3 3 6 6 0
0 0 0 0 0 0 0 0 0 0 0 0 0 0 0 0 0 0 0 0 0 0 0 0 0 0 0 0 0 0 0 0 0 0 3 3 3 3 3 3 3 3 6
0 0 0 0 0 0 0 0 0 0 0 0 0 0 0 0 0 0 0 0 0 0 0 0 0 0 0 0 0 0 0 0 0 0 0 3 3 3 0 3 3 3 6
0 0 0 0 0 0 0 0 0 0 0 0 0 0 0 0 0 0 0 0 0 0 0 0 0 0 0 0 0 0 0 0 0 0 0 0 0 0 3 3 3 3 3
0 0 0 0 0 0 0 0 0 0 0 0 0 0 0 0 0 0 0 0 0 0 0 0 0 0 0 0 0 0 0 0 0 0 0 0 0 0 3 3 3 3 3
0 0 0 0 0 0 0 0 0 0 0 0 0 0 0 0 0 0 0 0 0 0 0 0 0 0 0 0 0 0 0 0 0 0 0 0 0 0 0 0 3 3 3
0 0 0 0 0 0 0 0 0 0 0 0 0 0 0 0 0 0 0 0 0 0 0 0 0 0 0 0 0 0 0 0 0 0 0 0 0 0 0 0 0 3 3
0 0 0 0 0 0 0 0 0 0 0 0 0 0 0 0 0 0 0 0 0 0 0 0 0 0 0 0 0 0 0 0 0 0 0 0 0 0 0 0 0 0 0
0 0 0 0 0 0 0 0 0 0 0 0 0 0 0 0 0 0 0 0 0 0 0 0 0 0 0 0 0 0 0 0 0 0 0 0 0 0 0 0 0 0 0
0 0 0 0 0 0 0 0 0 0 0 0 0 0 0 0 0 0 0 0 0 0 0 0 0 0 0 0 0 0 0 0 0 0 0 0 0 0 0 0 0 0 0
0 0 0 0 0 0 0 0 0 0 0 0 0 0 0 0 0 0 0 0 0 0 0 0 0 0 0 0 0 0 0 0 0 0 0 0 0 0 0 0 0 0 0
0 0 0 0 0 0 0 0 0 0 0 0 0 0 0 0 0 0 0 0 0 0 0 0 0 0 0 0 0 0 0 0 0 0 0 0 0 0 0 0 0 0 0
0 0 0 0 0 0 0 0 0 0 0 0 0 0 0 0 0 0 0 0 0 0 0 0 0 0 0 0 0 0 0 0 0 0 0 0 0 0 0 0 0 0 0
0 0 0 0 0 0 0 0 0 0 0 0 0 0 0 0 0 0 0 0 0 0 0 0 0 0 0 0 0 0 0 0 0 0 0 0 0 0 0 0 0 0 0
0 0 0 0 0 0 0 0 0 0 0 0 0 0 0 0 0 0 0 0 0 0 0 0 0 0 0 0 0 0 0 0 0 0 0 0 0 0 0 0 0 0 0
0 0 0 0 0 0 0 0 0 0 0 0 0 0 0 0 0 0 0 0 0 0 0 0 0 0 0 0 0 0 0 0 0 0 0 0 0 0 0 0 0 0 0
0 0 0 0 0 0 0 0 0 0 0 0 0 0 0 0 0 0 0 0 0 0 0 0 0 0 0 0 0 0 0 0 0 0 0 0 0 0 0 0 0 0 0
0 0 0 0 0 0 0 0 0 0 0 0 0 0 0 0 0 0 0 0 0 0 0 0 0 0 0 0 0 0 0 0 0 0 0 0 0 0 0 0 0 0 0
0 0 0 0 0 0 0 0 0 0 0 0 0 0 0 0 0 0 0 0 0 0 0 0 0 0 0 0 0 0 0 0 0 0 0 0 0 0 0 0 0 0 0
0 0 0 0 0 0 0 0 0 0 0 0 0 0 0 0 0 0 0 0 0 0 0 0 0 0 0 0 0 0 0 0 0 0 0 0 0 0 0 0 0 0 0
Height
5782 5782 5783 5785 5786 5788 5789 5790 5790 5791 5792 5793 5793 5794 5795 5796 5796 5797 5798 5798 5799 5799 5800 5800 5801 5801 5802 5803 5804 5805 5806 5806 5807 5808 5809 5809 5810 5811 5812 5813 5813 5813 5814
5773 5774 5775 5776 5778 5779 5780 5781 5782 5783 5784 5785 5786 5786 5787 5788 5789 5789 5790 5791 5791 5792 5793 5793 5794 5795 5795 5796 5797 5798 5799 5800 5801 5801 5802 5803 5804 5805 5805 5806 5807 5807 5808
5764 5765 5766 5767 5769 5770 5771 5772 5774 5775 5775 5776 5777 5778 5779 5779 5780 5781 5782 5782 5783 5784 5784 5785 5786 5787 5788 5789 5790 5791 5791 5792 5793 5794 5795 5796 5797 5798 5799 5800 5800 5801 5802
5754 5755 5756 5757 5759 5760 5761 5763 5764 5765 5766 5767 5768 5769 5769 5770 5771 5772 5772 5773 5774 5774 5775 5776 5777 5778 5779 5780 5781 5782 5783 5784 5785 5786 5787 5788 5789 5790 5791 5792 5793 5794 5795
5743 5744 5745 5747 5748 5749 5751 5752 5754 5755 5756 5757 5758 5758 5759 5760 5761 5762 5762 5763 5764 5765 5766 5767 5767 5768 5770 5771 5772 5773 5774 5775 5776 5777 5778 5780 5781 5782 5783 5784 5785 5786 5788
5731 5733 5734 5735 5736 5738 5739 5741 5742 5744 5745 5745 5746 5747 5748 5749 5750 5751 5751 5752 5753 5754 5754 5756 5757 5758 5759 5760 5761 5762 5764 5765 5766 5767 5769 5770 5771 5773 5774 5775 5777 5778 5779
5719 5720 5721 5722 5723 5725 5727 5728 5730 5731 5732 5733 5734 5735 5736 5737 5738 5738 5739 5740 5741 5741 5742 5743 5745 5746 5747 5748 5750 5751 5752 5754 5755 5757 5758 5759 5761 5762 5764 5765 5767 5768 5770
5707 5708 5708 5709 5710 5712 5713 5715 5717 5718 5719 5720 5721 5722 5723 5725 5725 5726 5726 5727 5727 5728 5729 5730 5732 5733 5734 5736 5737 5739 5740 5742 5743 5745 5746 5748 5750 5751 5753 5754 5756 5758 5760
5694 5694 5695 5696 5697 5698 5699 5701 5702 5704 5705 5705 5706 5707 5708 5710 5711 5713 5712 5713 5713 5714 5715 5716 5717 5718 5720 5721 5723 5725 5727 5728 5730 5731 5733 5735 5737 5739 5741 5743 5745 5746 5749
5681 5681 5681 5681 5682 5683 5684 5686 5687 5688 5689 5690 5691 5691 5693 5693 5695 5697 5698 5697 5697 5698 5699 5700 5701 5703 5704 5706 5708 5710 5712 5714 5715 5717 5719 5721 5723 5725 5728 5730 5732 5734 5736
5666 5666 5667 5667 5667 5668 5669 5670 5671 5672 5673 5674 5674 5675 5676 5676 5677 5679 5682 5682 5682 5682 5682 5683 5684 5686 5687 5689 5691 5693 5696 5698 5700 5702 5704 5706 5709 5711 5713 5716 5718 5721 5723
5651 5651 5652 5652 5652 5652 5653 5654 5655 5655 5656 5657 5657 5658 5658 5659 5660 5660 5662 5664 5665 5666 5665 5666 5667 5668 5669 5671 5673 5676 5678 5680 5683 5685 5688 5690 5693 5696 5698 5701 5704 5707 5710
5637 5636 5636 5636 5636 5637 5637 5638 5638 5639 5639 5639 5640 5640 5640 5640 5641 5641 5642 5644 5645 5647 5647 5648 5648 5649 5650 5652 5654 5657 5659 5662 5665 5668 5670 5673 5676 5680 5683 5686 5689 5692 5695
5622 5621 5621 5621 5621 5621 5621 5621 5622 5622 5622 5622 5622 5622 5622 5622 5622 5621 5622 5623 5625 5627 5629 5630 5630 5630 5632 5633 5636 5637 5640 5643 5646 5649 5652 5655 5659 5662 5666 5669 5673 5676 5680
5607 5606 5606 5605 5605 5605 5604 5604 5605 5604 5604 5604 5604 5604 5603 5603 5603 5602 5602 5602 5604 5606 5610 5612 5611 5612 5612 5614 5616 5618 5621 5624 5626 5629 5632 5636 5640 5644 5648 5652 5656 5660 5664
5593 5592 5590 5590 5589 5588 5587 5587 5587 5587 5586 5586 5586 5585 5585 5584 5584 5583 5583 5583 5583 5584 5588 5593 5592 5593 5593 5595 5597 5599 5601 5604 5607 5610 5613 5616 5620 5625 5629 5633 5638 5643 5647
5578 5576 5575 5574 5573 5572 5571 5570 5570 5569 5568 5568 5567 5567 5566 5565 5565 5564 5564 5564 5564 5565 5568 5573 5573 5574 5575 5576 5578 5580 5582 5585 5588 5590 5593 5597 5601 5605 5609 5614 5619 5624 5629
5563 5561 5559 5558 5557 5555 5554 5553 5552 5551 5550 5550 5549 5548 5548 5547 5546 5545 5545 5546 5546 5547 5548 5552 5555 5555 5557 5558 5559 5561 5564 5566 5569 5572 5574 5578 5581 5586 5590 5595 5600 5605 5611
5548 5546 5544 5542 5540 5539 5538 5536 5535 5534 5533 5532 5531 5530 5530 5529 5528 5527 5527 5528 5528 5529 5530 5533 5536 5538 5539 5540 5541 5543 5545 5548 5550 5553 5556 5559 5563 5567 5571 5576 5581 5587 5592
5533 5530 5528 5526 5524 5523 5521 5519 5518 5517 5516 5515 5513 5513 5512 5511 5510 5510 5510 5510 5511 5512 5513 5515 5518 5521 5522 5523 5524 5526 5528 5530 5532 5534 5537 5540 5544 5548 5553 5558 5564 5569 5574
5518 5515 5512 5510 5508 5506 5504 5502 5501 5500 5499 5498 5496 5495 5494 5493 5492 5492 5492 5493 5493 5494 5496 5498 5500 5503 5505 5505 5507 5508 5510 5513 5515 5516 5518 5523 5526 5531 5534 5539 5544 5549 5554
5502 5499 5497 5494 5492 5490 5488 5485 5484 5483 5481 5480 5479 5477 5476 5476 5475 5475 5475 5476 5476 5477 5479 5481 5483 5486 5488 5489 5490 5491 5493 5496 5499 5502 5501 5505 5508 5512 5517 5522 5526 5531 5536
5487 5484 5481 5478 5476 5474 5471 5469 5467 5466 5465 5463 5461 5460 5459 5459 5458 5458 5459 5459 5459 5460 5462 5464 5467 5470 5472 5474 5474 5476 5477 5479 5483 5485 5486 5490 5493 5496 5500 5504 5509 5513 5518
5472 5469 5466 5463 5460 5458 5455 5453 5451 5449 5449 5447 5445 5444 5443 5443 5442 5442 5443 5443 5444 5446 5447 5449 5452 5455 5456 5457 5459 5460 5462 5464 5467 5469 5471 5474 5478 5481 5485 5489 5493 5497 5501
5457 5454 5450 5447 5445 5443 5440 5437 5435 5434 5433 5432 5431 5429 5428 5428 5428 5427 5428 5429 5430 5432 5433 5435 5437 5439 5441 5443 5444 5446 5448 5450 5453 5456 5457 5460 5463 5466 5470 5474 5477 5481 5485
5443 5439 5436 5432 5429 5427 5425 5422 5420 5419 5419 5418 5417 5416 5415 5414 5414 5413 5413 5415 5416 5418 5419 5422 5424 5426 5428 5430 5431 5433 5435 5437 5439 5443 5445 5446 5449 5451 5456 5460 5463 5466 5470
Wind_Speed
33 32 32 33 33 32 32 32 31 31 31 32 31 31 31 31 30 29 29 29 29 29 29 29 28 28 28 28 29 29 28 28 28 27 28 28 27 27 27 27 26 25 25
36 35 34 34 35 34 34 33 33 33 33 33 33 33 33 33 33 33 33 32 32 32 32 32 31 31 31 30 31 31 31 31 30 30 30 30 30 30 29 29 29 28 27
39 38 37 36 37 37 36 36 36 35 35 35 35 35 35 35 36 36 36 36 35 35 35 35 34 34 34 34 33 33 34 34 34 33 34 34 33 33 32 31 31 30 30
40 39 38 38 39 39 39 39 39 38 38 38 38 38 38 38 38 38 38 38 38 37 37 37 37 37 36 36 36 36 36 36 36 36 36 35 35 35 34 34 33 32 32
42 42 41 41 42 42 42 42 42 42 41 41 41 41 41 41 41 41 41 41 40 40 40 40 39 39 39 40 39 39 39 39 39 38 38 38 37 37 37 36 36 35 34
45 45 44 44 44 45 45 45 45 45 45 44 44 44 44 44 45 45 44 44 44 44 43 43 43 42 42 43 43 42 42 41 42 41 41 40 40 39 39 39 38 38 36
47 48 47 46 46 47 48 48 48 48 48 48 48 48 47 47 47 47 47 48 47 47 47 47 47 46 46 46 46 46 46 45 45 44 44 43 43 42 42 41 41 41 40
48 49 49 49 49 50 50 50 51 51 51 51 51 52 51 51 50 50 50 50 51 51 51 51 51 51 51 50 49 49 49 48 48 48 47 46 46 45 45 44 44 43 42
50 51 52 52 52 52 52 52 53 54 53 53 53 54 54 54 53 53 53 54 54 54 54 54 54 54 54 54 53 53 52 51 51 51 50 50 49 48 48 47 46 45 45
51 53 54 54 54 54 54 54 55 55 56 55 55 56 57 57 57 56 56 56 56 56 56 56 57 57 56 56 56 56 55 55 54 53 53 52 52 51 50 50 49 48 48
52 54 55 55 56 56 55 55 56 57 57 57 57 58 59 59 60 59 58 58 58 59 58 58 58 59 59 59 58 58 57 57 57 56 55 55 54 54 53 52 52 51 50
54 54 55 56 56 56 55 56 56 57 58 59 59 60 61 61 61 62 61 61 61 60 61 61 61 61 61 61 61 61 60 60 59 58 58 57 57 56 55 54 54 53 52
54 55 55 56 56 57 56 56 57 57 59 59 60 61 61 62 62 63 63 64 64 63 62 62 62 62 63 63 63 63 63 62 62 61 60 60 59 58 58 57 56 55 55
53 54 55 56 56 56 56 57 57 58 59 59 59 60 61 61 62 63 64 65 65 64 63 63 62 63 64 64 64 64 64 64 63 63 63 62 62 61 61 60 59 58 57
52 53 54 55 56 57 57 58 58 58 59 59 60 61 62 62 63 63 64 64 65 65 64 63 62 63 63 63 64 64 64 64 65 65 65 64 64 64 63 63 62 61 60
51 53 55 55 56 57 58 58 59 59 59 59 60 61 62 62 62 63 63 63 64 64 64 62 62 62 62 62 63 63 64 64 65 65 66 66 66 65 65 65 64 63 62
52 53 54 55 56 57 58 59 60 60 61 61 60 60 61 61 61 62 62 62 62 63 63 62 62 62 61 61 62 63 64 64 64 64 65 65 65 66 66 66 66 65 64
52 54 56 56 57 57 56 57 57 58 59 59 60 60 59 59 60 61 61 61 61 60 61 60 59 60 60 60 60 61 62 63 63 63 64 64 65 65 65 65 66 66 65
53 53 55 56 57 57 57 57 57 57 57 58 58 59 58 58 58 59 59 59 58 58 58 58 57 58 58 58 59 60 61 61 61 62 63 63 64 65 65 65 65 65 66
53 54 54 55 56 57 58 58 59 58 57 57 58 58 58 57 57 57 57 57 57 57 57 58 57 57 57 57 58 58 59 60 60 61 61 62 63 63 64 65 65 65 65
53 54 54 55 56 57 58 58 57 57 57 56 57 57 58 57 56 55 55 56 56 57 57 58 57 57 56 56 57 57 57 58 58 58 59 60 60 61 61 62 64 64 64
53 53 53 54 55 55 56 57 56 55 55 56 56 56 56 56 54 54 54 55 56 56 56 56 55 55 54 54 55 54 54 55 55 55 56 56 57 58 59 60 61 62 63
52 52 53 53 53 53 54 55 55 54 53 53 54 54 54 54 54 52 52 54 54 54 53 53 52 52 52 52 52 52 52 52 52 52 54 53 54 54 55 56 58 59 61
52 52 52 52 52 52 53 52 52 51 50 49 49 50 51 51 51 50 49 50 51 51 51 51 51 50 50 50 50 49 49 50 49 49 51 51 51 52 53 54 55 56 58
50 51 51 51 51 51 51 51 50 50 48 47 46 46 46 47 48 48 47 47 47 47 48 48 47 47 47 47 47 47 46 47 47 47 48 49 49 50 51 52 52 53 55
49 49 49 50 50 50 50 49 49 49 48 46 45 44 44 45 45 46 45 45 45 46 45 45 45 45 44 44 44 45 44 44 44 44 46 47 48 49 51 51 51 51 52
Wind_Direction
258 256 256 254 253 253 254 256 256 256 256 257 257 256 256 256 257 258 259 258 259 259 259 258 258 257 256 256 255 256 255 256 256 256 257 257 257 258 258 259 261 261 262
258 258 256 256 254 254 254 256 257 257 258 258 258 259 258 258 258 258 259 259 260 259 258 258 258 257 257 257 256 255 256 256 256 257 258 258 259 259 259 259 261 261 262
259 259 258 256 255 254 255 256 257 258 259 259 259 259 259 259 259 259 260 260 260 260 258 258 257 257 257 257 256 256 257 257 258 258 258 259 260 259 259 258 258 260 261
260 259 259 258 256 255 256 257 258 259 260 261 261 260 260 260 260 260 260 260 260 260 259 258 258 256 257 257 256 256 256 257 257 258 258 259 258 258 258 257 257 258 260
260 260 260 259 258 256 257 258 259 260 261 261 262 262 261 261 260 260 260 261 260 259 258 258 258 257 256 256 256 256 256 256 257 257 258 258 258 258 259 259 258 258 258
262 262 261 261 259 258 258 259 259 260 261 262 262 262 262 262 262 261 261 261 261 260 259 258 258 258 257 257 256 256 256 256 257 257 257 258 259 259 259 258 258 258 257
262 262 262 261 261 259 259 260 261 261 261 262 262 262 262 262 262 262 262 262 261 260 259 259 259 258 258 257 257 257 257 257 257 257 257 258 258 258 258 258 258 258 258
263 262 263 262 262 261 260 261 262 263 262 262 262 262 261 261 261 262 262 262 262 262 261 260 259 259 259 258 258 257 257 258 257 257 256 257 257 258 258 257 258 258 258
263 263 264 265 263 262 262 262 262 263 263 263 263 263 263 263 262 263 264 264 263 263 262 261 260 260 259 258 258 257 257 258 257 257 257 257 257 257 257 257 257 257 257
264 264 264 265 264 264 263 263 263 263 263 263 263 264 265 265 264 264 265 265 264 263 262 261 260 260 259 258 258 258 257 257 257 256 256 257 256 256 256 256 255 255 255
265 265 265 266 265 264 264 263 264 264 264 264 265 265 265 266 266 266 266 265 264 263 263 262 262 261 260 259 258 258 258 257 257 257 256 256 256 255 255 254 254 254 254
266 266 266 266 265 265 265 265 264 265 265 265 266 266 266 266 267 267 267 265 264 263 263 262 262 262 261 260 259 258 258 258 257 257 256 256 255 254 254 254 253 253 253
268 267 266 267 266 265 265 266 265 265 266 266 266 267 267 268 268 267 267 266 265 264 263 263 262 262 261 260 260 259 258 258 257 256 255 255 254 253 252 253 253 252 253
269 269 268 267 267 266 266 267 267 267 266 266 267 267 268 268 269 268 267 267 266 264 263 262 261 261 260 259 259 258 258 257 256 256 255 254 253 252 252 252 251 251 252
271 270 270 269 268 268 267 268 269 268 267 268 268 268 268 269 269 269 268 267 267 265 262 261 261 260 259 259 258 258 257 257 256 255 254 253 252 252 251 251 251 250 251
273 272 272 271 270 269 269 270 270 270 269 269 269 269 269 269 269 269 268 268 267 265 263 261 261 260 259 258 258 257 257 256 256 255 254 253 252 251 250 250 250 250 251
275 274 273 272 270 270 271 270 271 270 269 269 269 269 269 269 269 269 268 268 267 266 264 261 261 260 259 259 258 257 257 256 256 255 254 253 252 251 250 249 249 249 250
276 276 274 273 271 270 271 272 272 271 270 270 269 269 270 270 270 269 268 267 266 265 263 262 260 260 259 259 259 258 257 256 256 255 254 253 252 251 250 249 248 248 248
277 276 276 274 272 271 271 272 273 273 273 272 271 270 270 271 270 269 268 267 266 264 263 262 260 260 260 259 259 258 257 256 256 255 254 253 252 251 250 249 248 248 248
279 277 277 276 275 274 273 273 273 274 274 273 272 271 270 270 270 268 267 266 265 264 263 261 260 260 260 260 259 259 258 257 256 255 254 253 252 251 250 249 249 248 248
280 279 278 276 276 275 275 274 274 274 273 273 273 271 270 270 269 267 266 265 264 264 263 261 260 260 260 260 259 259 258 257 257 256 255 254 252 252 251 250 249 249 248
282 281 279 278 277 277 276 275 274 275 276 275 273 271 270 269 268 266 266 265 264 264 262 261 259 259 259 259 259 258 258 257 256 255 254 253 253 252 251 250 250 249 249
282 281 280 279 278 277 276 275 274 275 277 276 274 272 269 268 267 266 266 265 264 263 262 260 259 258 259 258 258 258 258 257 256 254 254 253 253 252 251 250 249 249 249
282 281 280 279 279 277 276 276 275 276 275 275 274 272 270 268 267 266 266 265 264 262 261 259 259 258 257 257 257 257 257 257 255 253 253 254 253 252 251 250 250 249 249
283 282 281 280 279 277 276 276 274 274 274 274 274 272 270 268 268 267 266 264 262 261 259 257 257 257 256 256 257 256 255 256 255 254 254 254 253 252 251 251 250 251 250
284 283 282 281 280 278 277 275 274 273 272 272 271 270 269 268 268 267 265 263 261 259 257 256 255 254 254 255 255 255 253 254 254 254 253 254 254 253 252 251 250 251 251